Stündliche Wetter Barnim

Heute, 31 Oktober, Samstag

Zeit Temperatur Niederschläge Wind Luftdruck Luftfeuchtigkeit
00:00 +11°C° 0 mm 1 m/S 761 mmHg 97%
01:00 +12°C° 0 mm 1 m/S 761 mmHg 97%
02:00 +12°C° 0 mm 1 m/S 761 mmHg 97%
03:00 +12°C° 0 mm 1 m/S 761 mmHg 97%
04:00 +11°C° 0 mm 1 m/S 762 mmHg 97%
05:00 +11°C° 0 mm 1 m/S 762 mmHg 97%
06:00 +10°C° 0 mm 2 m/S 762 mmHg 96%
07:00 +10°C° 0 mm 2 m/S 763 mmHg 96%
08:00 +10°C° 0 mm 2 m/S 763 mmHg 95%
09:00 +10°C° 0 mm 2 m/S 763 mmHg 93%
10:00 +12°C° 0 mm 2 m/S 763 mmHg 92%
11:00 +12°C° 0 mm 2 m/S 763 mmHg 90%
12:00 +12°C° 0 mm 3 m/S 763 mmHg 88%
13:00 +13°C° 0 mm 3 m/S 763 mmHg 87%
14:00 +13°C° 0 mm 3 m/S 763 mmHg 88%
15:00 +12°C° 0 mm 3 m/S 763 mmHg 89%
16:00 +12°C° 0 mm 3 m/S 763 mmHg 91%
17:00 +12°C° 0 mm 3 m/S 762 mmHg 91%
18:00 +12°C° 0 mm 3 m/S 762 mmHg 92%
19:00 +12°C° 0 mm 3 m/S 762 mmHg 93%
20:00 +12°C° 0 mm 4 m/S 762 mmHg 93%
21:00 +12°C° 0 mm 4 m/S 762 mmHg 93%
22:00 +12°C° 0 mm 5 m/S 761 mmHg 93%
23:00 +12°C° 0 mm 5 m/S 761 mmHg 93%

Morgen, 1 November, Sonntag

Zeit Temperatur Niederschläge Wind Luftdruck Luftfeuchtigkeit
00:00 +12°C° 0 mm 5 m/S 761 mmHg 93%
01:00 +10°C° 0 mm 5 m/S 761 mmHg 94%
02:00 +10°C° 0 mm 5 m/S 760 mmHg 94%
03:00 +10°C° 0 mm 5 m/S 760 mmHg 94%
04:00 +10°C° 0 mm 5 m/S 759 mmHg 94%
05:00 +10°C° 0 mm 4 m/S 759 mmHg 94%
06:00 +10°C° 0 mm 4 m/S 759 mmHg 94%
07:00 +10°C° 0 mm 4 m/S 759 mmHg 95%
08:00 +10°C° 0 mm 4 m/S 758 mmHg 93%
09:00 +11°C° 0 mm 4 m/S 758 mmHg 90%
10:00 +11°C° 0 mm 4 m/S 758 mmHg 88%
11:00 +11°C° 0.1 mm 4 m/S 757 mmHg 89%
12:00 +11°C° 0.1 mm 4 m/S 757 mmHg 91%
13:00 +11°C° 0.1 mm 4 m/S 756 mmHg 92%
14:00 +11°C° 0.2 mm 4 m/S 756 mmHg 92%
15:00 +11°C° 0.2 mm 4 m/S 756 mmHg 92%
16:00 +12°C° 0.2 mm 4 m/S 755 mmHg 92%
17:00 +12°C° 0.8 mm 5 m/S 755 mmHg 93%
18:00 +12°C° 0.8 mm 5 m/S 755 mmHg 93%
19:00 +12°C° 0.8 mm 5 m/S 754 mmHg 94%
20:00 +12°C° 0.3 mm 5 m/S 754 mmHg 94%
21:00 +12°C° 0.3 mm 5 m/S 754 mmHg 93%
22:00 +12°C° 0.3 mm 5 m/S 753 mmHg 93%
23:00 +13°C° 0.2 mm 5 m/S 753 mmHg 92%

übermorgen, 2 November, Montag

Zeit Temperatur Niederschläge Wind Luftdruck Luftfeuchtigkeit
00:00 +13°C° 0.2 mm 5 m/S 754 mmHg 91%
01:00 +14°C° 0.2 mm 5 m/S 754 mmHg 91%
02:00 +13°C° 0 mm 4 m/S 754 mmHg 90%
03:00 +12°C° 0 mm 4 m/S 754 mmHg 90%
04:00 +12°C° 0 mm 4 m/S 754 mmHg 90%
05:00 +12°C° 0.2 mm 4 m/S 755 mmHg 91%
06:00 +11°C° 0.2 mm 3 m/S 755 mmHg 92%
07:00 +11°C° 0.2 mm 3 m/S 755 mmHg 92%
08:00 +11°C° 0.4 mm 3 m/S 755 mmHg 93%
09:00 +11°C° 0.4 mm 3 m/S 755 mmHg 93%
10:00 +12°C° 0.4 mm 3 m/S 755 mmHg 93%
11:00 +13°C° 0 mm 4 m/S 755 mmHg 91%
12:00 +15°C° 0 mm 5 m/S 755 mmHg 89%
13:00 +16°C° 0 mm 5 m/S 755 mmHg 87%
14:00 +16°C° 0.1 mm 5 m/S 755 mmHg 88%
15:00 +16°C° 0.1 mm 5 m/S 755 mmHg 89%
16:00 +16°C° 0.1 mm 5 m/S 755 mmHg 91%
17:00 +16°C° 0 mm 5 m/S 755 mmHg 89%
18:00 +17°C° 0 mm 4 m/S 755 mmHg 87%
19:00 +17°C° 0 mm 4 m/S 755 mmHg 86%
20:00 +16°C° 0 mm 5 m/S 755 mmHg 85%
21:00 +16°C° 0 mm 5 m/S 755 mmHg 85%
22:00 +16°C° 0 mm 5 m/S 755 mmHg 84%
23:00 +16°C° 0 mm 5 m/S 756 mmHg 85%

3 November, Dienstag

Zeit Temperatur Niederschläge Wind Luftdruck Luftfeuchtigkeit
00:00 +16°C° 0 mm 5 m/S 756 mmHg 85%
01:00 +16°C° 0 mm 6 m/S 757 mmHg 86%
02:00 +15°C° 0 mm 5 m/S 757 mmHg 84%
03:00 +14°C° 0 mm 5 m/S 758 mmHg 82%
04:00 +14°C° 0 mm 4 m/S 758 mmHg 80%
05:00 +13°C° 0 mm 4 m/S 759 mmHg 79%
06:00 +12°C° 0 mm 4 m/S 759 mmHg 77%
07:00 +12°C° 0 mm 4 m/S 760 mmHg 76%
08:00 +12°C° 0 mm 5 m/S 761 mmHg 73%
09:00 +11°C° 0 mm 6 m/S 761 mmHg 70%
10:00 +11°C° 0 mm 7 m/S 762 mmHg 66%
11:00 +11°C° 0 mm 7 m/S 762 mmHg 64%
12:00 +11°C° 0 mm 7 m/S 763 mmHg 62%
13:00 +11°C° 0 mm 7 m/S 763 mmHg 60%
14:00 +11°C° 0 mm 6 m/S 763 mmHg 62%
15:00 +10°C° 0 mm 5 m/S 763 mmHg 63%
16:00 +10°C° 0 mm 4 m/S 764 mmHg 65%
17:00 +10°C° 0 mm 4 m/S 764 mmHg 64%
18:00 +10°C° 0 mm 4 m/S 764 mmHg 63%
19:00 +10°C° 0 mm 4 m/S 765 mmHg 62%
20:00 +8°C° 0 mm 4 m/S 765 mmHg 66%
21:00 +7°C° 0 mm 4 m/S 765 mmHg 70%
22:00 +8°C° 0 mm 3 m/S 765 mmHg 74%
23:00 +7°C° 0 mm 3 m/S 765 mmHg 76%

4 November, Mittwoch

Zeit Temperatur Niederschläge Wind Luftdruck Luftfeuchtigkeit
00:00 +7°C° 0 mm 3 m/S 766 mmHg 78%
01:00 +7°C° 0 mm 3 m/S 766 mmHg 79%
02:00 +5°C° 0 mm 3 m/S 766 mmHg 82%
03:00 +5°C° 0 mm 3 m/S 766 mmHg 84%
04:00 +4°C° 0 mm 3 m/S 766 mmHg 87%
05:00 +4°C° 0 mm 3 m/S 766 mmHg 87%
06:00 +4°C° 0 mm 3 m/S 767 mmHg 88%
07:00 +4°C° 0 mm 3 m/S 767 mmHg 89%
08:00 +5°C° 0 mm 4 m/S 767 mmHg 83%
09:00 +6°C° 0 mm 4 m/S 767 mmHg 77%
10:00 +7°C° 0 mm 5 m/S 768 mmHg 71%
11:00 +7°C° 0 mm 5 m/S 768 mmHg 69%
12:00 +8°C° 0 mm 5 m/S 768 mmHg 67%
13:00 +9°C° 0 mm 5 m/S 768 mmHg 65%
14:00 +8°C° 0 mm 4 m/S 769 mmHg 67%
15:00 +8°C° 0 mm 3 m/S 769 mmHg 70%
16:00 +8°C° 0 mm 2 m/S 769 mmHg 73%
17:00 +7°C° 0 mm 2 m/S 770 mmHg 77%
18:00 +6°C° 0 mm 2 m/S 770 mmHg 80%
19:00 +6°C° 0 mm 2 m/S 771 mmHg 84%
20:00 +5°C° 0 mm 2 m/S 771 mmHg 85%
21:00 +5°C° 0 mm 2 m/S 771 mmHg 87%
22:00 +5°C° 0 mm 2 m/S 771 mmHg 88%
23:00 +5°C° 0 mm 2 m/S 772 mmHg 89%

5 November, Donnerstag

Zeit Temperatur Niederschläge Wind Luftdruck Luftfeuchtigkeit
00:00 +5°C° 0 mm 2 m/S 772 mmHg 90%
01:00 +5°C° 0 mm 2 m/S 772 mmHg 91%
02:00 +5°C° 0 mm 2 m/S 772 mmHg 92%
03:00 +4°C° 0 mm 2 m/S 772 mmHg 92%
04:00 +4°C° 0 mm 2 m/S 772 mmHg 93%
05:00 +4°C° 0 mm 2 m/S 773 mmHg 94%
06:00 +4°C° 0 mm 2 m/S 773 mmHg 94%
07:00 +4°C° 0 mm 2 m/S 773 mmHg 95%
08:00 +5°C° 0 mm 2 m/S 774 mmHg 92%
09:00 +5°C° 0 mm 3 m/S 774 mmHg 88%
10:00 +7°C° 0 mm 3 m/S 774 mmHg 84%
11:00 +8°C° 0 mm 3 m/S 774 mmHg 81%
12:00 +9°C° 0 mm 3 m/S 774 mmHg 77%
13:00 +10°C° 0 mm 3 m/S 774 mmHg 73%
14:00 +9°C° 0 mm 3 m/S 774 mmHg 76%
15:00 +8°C° 0 mm 2 m/S 774 mmHg 80%
16:00 +8°C° 0 mm 2 m/S 774 mmHg 83%
17:00 +7°C° 0 mm 2 m/S 774 mmHg 86%
18:00 +6°C° 0 mm 2 m/S 774 mmHg 88%
19:00 +5°C° 0 mm 3 m/S 775 mmHg 91%
20:00 +4°C° 0 mm 3 m/S 775 mmHg 92%
21:00 +4°C° 0 mm 3 m/S 775 mmHg 92%
22:00 +4°C° 0 mm 3 m/S 775 mmHg 93%
23:00 +4°C° 0 mm 3 m/S 775 mmHg 94%
Mehr zeigen